Location: *
(40.9167°N, 9.5000°E)
Time: 21:18:53
(UTC+00:00)

YAOGAN 1 - Pass Details

Date: 09 April 2020
Orbit: 618 x 620 km, 97.9° (Epoch: 31 May)

Event Time Altitude Azimuth Distance (km) Brightness Sun altitude
Rises 18:30:33 0° 186° (S) 2,881 5.9 -7.2°
Reaches altitude 10° 18:32:51 10° 194° (SSW) 1,980 5.1 -7.6°
Maximum altitude 18:36:51 37° 262° (W) 974 4.3 -8.3°
Drops below altitude 10° 18:40:53 10° 330° (NNW) 1,996 5.9 -9.1°
Sets 18:43:13 0° 339° (NNW) 2,907 6.6 -9.5°
